This is the latest recevied weather packets stored in our database for station/object KC4KQE. If no packets are shown the sender has not sent any weather packets the latest 1 day(s).
| Time | Temp. | Humidity | Pressure | Rain* | Wind** | Luminosity | Snow |
|---|---|---|---|---|---|---|---|
| 1778014156 | 22.78° C | 36% | 1011.1 hPa | 0 mm | 3.13 m/s, 110° | 318 W/m² | - |
| 1778013856 | 23.33° C | 38% | 1011.2 hPa | 0 mm | 4.92 m/s, 110° | 285 W/m² | - |
| 1778013556 | 22.78° C | 39% | 1011.1 hPa | 0 mm | 1.79 m/s, 110° | 239 W/m² | - |
| 1778013256 | 23.33° C | 36% | 1011.2 hPa | 0 mm | 1.34 m/s, 110° | 294 W/m² | - |
| 1778012956 | 23.89° C | 36% | 1011.2 hPa | 0 mm | 4.47 m/s, 110° | 999 W/m² | - |
| 1778012656 | 23.33° C | 39% | 1011.3 hPa | 0 mm | 4.92 m/s, 110° | 999 W/m² | - |
| 1778012356 | 22.78° C | 38% | 1011.3 hPa | 0 mm | 5.36 m/s, 110° | 274 W/m² | - |
| 1778012056 | 23.89° C | 38% | 1011.3 hPa | 0 mm | 3.58 m/s, 110° | 999 W/m² | - |
| 1778011756 | 22.78° C | 41% | 1011.4 hPa | 0 mm | 0.45 m/s, 110° | 320 W/m² | - |
| 1778011456 | 22.78° C | 39% | 1011.4 hPa | 0 mm | 0.89 m/s, 110° | 411 W/m² | - |
| 1778011156 | 23.33° C | 41% | 1011.2 hPa | 0 mm | 3.58 m/s, 110° | 999 W/m² | - |
| 1778010856 | 23.33° C | 40% | 1011.5 hPa | 0 mm | 1.34 m/s, 110° | 999 W/m² | - |
| 1778010556 | 22.22° C | 41% | 1011.5 hPa | 0 mm | 1.79 m/s, 110° | 999 W/m² | - |
| 1778010256 | 22.78° C | 40% | 1011.6 hPa | 0 mm | 4.02 m/s, 110° | 267 W/m² | - |
| 1778009956 | 23.33° C | 41% | 1011.6 hPa | 0 mm | 4.47 m/s, 110° | 999 W/m² | - |
| 1778009657 | 23.33° C | 41% | 1011.6 hPa | 0 mm | 0.45 m/s, 110° | 999 W/m² | - |
| 1778009356 | 22.78° C | 42% | 1011.6 hPa | 0 mm | 4.47 m/s, 110° | 999 W/m² | - |
| 1778009056 | 21.67° C | 45% | 1011.8 hPa | 0 mm | 3.13 m/s, 110° | 999 W/m² | - |
| 1778008756 | 21.67° C | 44% | 1011.9 hPa | 0 mm | 1.34 m/s, 110° | 276 W/m² | - |
| 1778008457 | 22.22° C | 45% | 1011.9 hPa | 0 mm | 1.79 m/s, 110° | 397 W/m² | - |
| 1778008156 | 21.67° C | 47% | 1012 hPa | 0 mm | 1.79 m/s, 110° | 999 W/m² | - |
| 1778007856 | 21.67° C | 48% | 1012 hPa | 0 mm | 4.47 m/s, 110° | 483 W/m² | - |
| 1778007556 | 21.11° C | 50% | 1012 hPa | 0 mm | 2.24 m/s, 110° | 272 W/m² | - |
| 1778007256 | 21.11° C | 50% | 1012.2 hPa | 0 mm | 1.79 m/s, 110° | 287 W/m² | - |
| 1778006956 | 21.11° C | 52% | 1012.2 hPa | 0 mm | 4.02 m/s, 110° | 315 W/m² | - |
* Rain latest hour (hover to see other rain measurements)
** Current wind speed in m/s (hover to see current wind gust speed)